Location: Trois-Rivi�res
(46.3500°N, 72.5500°W)
Time: 12:47:20
(UTC-05:00)

OTV 5 (USA 277) - Pass Details

Date: 13 October 2017
Orbit: 404 x 417 km, 43.0° (Epoch: 07 September)

Event Time Altitude Azimuth Distance (km) Brightness Sun altitude
Rises 18:47:54 0° 235° (SW) 2,348 ? -7.9°
Reaches altitude 10° 18:50:10 10° 224° (SW) 1,488 ? -8.3°
Maximum altitude 18:53:08 29° 162° (SSE) 792 ? -8.8°
Enters shadow 18:55:43 12° 103° (ESE) 1,357 ? -9.2°
